Total_Precipitation_Accumulation
0.10 0.22 0.52 0.72 0.77 0.76 0.73 0.71 0.67 0.63 0.63 0.68 0.76 0.85 0.87 0.83 0.79 0.77 0.77 0.78 0.81 0.85 0.93 1.03 1.02 0.99 0.95 0.90 0.81 0.73 0.70 0.69 0.72 0.69 0.73 0.80 0.82 0.77 0.69 0.61 0.48 0.55 0.82
0.09 0.22 0.50 0.65 0.73 0.77 0.76 0.72 0.66 0.59 0.60 0.66 0.74 0.79 0.84 0.84 0.81 0.83 0.81 0.83 0.86 0.89 0.97 1.08 1.07 1.03 1.01 0.88 0.75 0.64 0.59 0.54 0.53 0.51 0.50 0.52 0.70 0.76 0.69 0.68 0.63 0.83 0.96
0.08 0.21 0.42 0.61 0.71 0.77 0.77 0.72 0.66 0.64 0.65 0.70 0.75 0.76 0.76 0.80 0.82 0.89 0.92 0.89 0.88 0.86 0.87 0.95 1.02 1.01 0.96 0.86 0.72 0.61 0.56 0.48 0.41 0.38 0.39 0.36 0.58 0.85 0.82 0.81 0.77 0.99 0.99
0.10 0.19 0.34 0.58 0.70 0.76 0.78 0.76 0.75 0.79 0.78 0.82 0.84 0.80 0.75 0.78 0.83 0.88 0.88 0.88 0.88 0.86 0.83 0.85 0.86 0.88 0.77 0.66 0.66 0.63 0.59 0.49 0.37 0.31 0.22 0.25 0.53 0.91 0.95 0.86 0.83 0.89 0.94
0.14 0.21 0.39 0.63 0.75 0.79 0.84 0.83 0.81 0.85 0.90 0.92 0.90 0.88 0.87 0.88 0.88 0.90 0.89 0.87 0.84 0.83 0.81 0.81 0.78 0.76 0.72 0.67 0.65 0.64 0.61 0.50 0.37 0.26 0.16 0.20 0.44 0.86 0.86 0.82 0.78 0.82 0.86
0.20 0.26 0.45 0.66 0.80 0.85 0.89 0.89 0.89 0.91 0.94 0.97 0.93 0.89 0.91 0.99 0.97 0.90 0.85 0.86 0.81 0.78 0.79 0.81 0.78 0.76 0.70 0.65 0.66 0.70 0.67 0.57 0.37 0.23 0.19 0.21 0.32 0.65 0.80 0.87 0.89 0.85 0.80
0.28 0.33 0.49 0.71 0.87 0.96 1.02 1.04 1.05 1.06 1.04 1.01 0.98 0.92 0.91 0.92 0.96 0.93 0.84 0.81 0.78 0.76 0.79 0.81 0.78 0.76 0.74 0.68 0.66 0.71 0.76 0.62 0.40 0.37 0.32 0.31 0.39 0.64 0.79 0.91 0.94 0.89 0.90
0.34 0.42 0.61 0.88 1.00 1.06 1.12 1.10 1.16 1.20 1.21 1.18 1.08 1.01 0.98 0.96 0.93 0.93 0.84 0.82 0.83 0.79 0.75 0.73 0.75 0.71 0.69 0.69 0.68 0.70 0.74 0.59 0.44 0.46 0.52 0.49 0.56 0.75 0.82 0.88 0.91 0.91 0.96
0.36 0.48 0.67 0.92 1.06 1.21 1.23 1.17 1.18 1.20 1.27 1.25 1.17 1.10 1.04 0.98 0.93 0.90 0.87 0.82 0.81 0.84 0.79 0.70 0.69 0.71 0.64 0.63 0.65 0.64 0.63 0.57 0.54 0.62 0.59 0.70 0.73 0.90 0.97 0.92 0.91 0.97 0.99
0.45 0.58 0.75 0.93 1.06 1.19 1.28 1.22 1.17 1.19 1.23 1.30 1.25 1.16 1.10 1.06 1.02 0.94 0.84 0.88 0.85 0.81 0.84 0.78 0.71 0.76 0.73 0.64 0.61 0.59 0.54 0.51 0.48 0.55 0.68 0.68 0.77 1.06 1.16 1.05 0.94 0.94 1.00
0.61 0.73 0.86 0.98 1.10 1.24 1.32 1.27 1.28 1.27 1.30 1.37 1.35 1.31 1.23 1.18 1.16 1.06 0.88 0.86 0.91 0.88 0.86 0.86 0.79 0.78 0.79 0.68 0.60 0.58 0.53 0.42 0.44 0.54 0.61 0.61 0.76 1.06 1.28 1.18 1.07 0.98 0.99
0.64 0.79 0.93 1.02 1.16 1.34 1.42 1.44 1.51 1.41 1.35 1.38 1.29 1.28 1.30 1.28 1.31 1.19 1.09 0.97 0.95 0.98 0.97 0.94 0.90 0.86 0.82 0.71 0.62 0.57 0.45 0.35 0.34 0.36 0.42 0.52 0.66 0.94 1.27 1.33 1.26 1.16 1.13
0.65 0.80 0.96 1.10 1.26 1.44 1.47 1.47 1.48 1.47 1.37 1.40 1.38 1.29 1.29 1.36 1.31 1.34 1.28 1.26 1.20 1.13 1.10 1.08 1.06 0.97 0.89 0.82 0.73 0.63 0.48 0.43 0.39 0.33 0.32 0.40 0.52 0.76 1.04 1.22 1.39 1.40 1.40
0.74 0.86 1.00 1.18 1.37 1.55 1.58 1.59 1.51 1.42 1.34 1.29 1.38 1.40 1.36 1.31 1.21 1.14 1.13 1.10 1.10 1.09 1.10 1.12 1.08 1.01 0.98 0.93 0.82 0.71 0.62 0.57 0.48 0.44 0.39 0.41 0.45 0.64 0.91 1.09 1.28 1.48 1.61
0.80 0.91 1.01 1.17 1.34 1.57 1.80 1.77 1.72 1.58 1.43 1.36 1.38 1.41 1.37 1.32 1.23 1.12 1.03 1.06 1.02 0.98 0.99 1.02 0.97 0.91 0.90 0.88 0.86 0.81 0.76 0.64 0.55 0.54 0.50 0.49 0.47 0.53 0.76 0.96 1.15 1.40 1.65
0.84 0.97 1.08 1.21 1.31 1.51 1.76 1.86 1.83 1.74 1.65 1.60 1.46 1.39 1.40 1.41 1.32 1.22 1.09 1.05 1.03 0.99 1.00 0.96 0.93 0.86 0.81 0.76 0.72 0.72 0.78 0.75 0.67 0.60 0.53 0.52 0.50 0.51 0.64 0.84 1.08 1.32 1.60
0.92 1.04 1.18 1.30 1.43 1.50 1.61 1.86 1.92 1.90 1.80 1.74 1.59 1.53 1.54 1.50 1.47 1.42 1.29 1.14 1.02 0.98 1.00 1.03 0.99 0.95 0.87 0.77 0.69 0.67 0.69 0.69 0.68 0.63 0.56 0.53 0.53 0.54 0.59 0.75 0.95 1.18 1.47
0.99 1.07 1.28 1.40 1.51 1.54 1.56 1.80 1.92 1.96 1.99 1.93 1.86 1.75 1.72 1.68 1.62 1.58 1.50 1.38 1.24 1.12 1.05 1.04 0.99 0.94 0.89 0.83 0.76 0.70 0.66 0.64 0.61 0.58 0.55 0.54 0.56 0.56 0.58 0.67 0.80 1.04 1.29
0.94 1.09 1.32 1.44 1.51 1.58 1.60 1.73 1.94 1.97 1.97 2.03 2.07 1.98 1.90 1.90 1.81 1.72 1.62 1.58 1.55 1.43 1.25 1.12 1.06 0.96 0.88 0.83 0.82 0.79 0.74 0.69 0.65 0.62 0.56 0.51 0.51 0.53 0.57 0.61 0.68 0.84 1.06
0.95 1.13 1.35 1.54 1.62 1.66 1.73 1.74 1.90 2.07 1.96 1.87 1.94 1.99 1.99 2.02 1.97 1.92 1.79 1.68 1.70 1.64 1.52 1.35 1.22 1.10 0.98 0.89 0.89 0.89 0.84 0.80 0.73 0.65 0.60 0.56 0.53 0.52 0.56 0.59 0.60 0.67 0.83
1.01 1.12 1.31 1.50 1.62 1.67 1.72 1.70 1.65 1.80 1.91 1.80 1.69 1.81 1.98 2.09 2.18 2.19 2.03 1.91 1.84 1.75 1.57 1.49 1.45 1.36 1.21 1.08 1.07 1.10 1.00 0.89 0.86 0.74 0.63 0.58 0.55 0.52 0.53 0.59 0.62 0.62 0.71
1.00 1.07 1.24 1.48 1.58 1.56 1.54 1.61 1.62 1.65 1.73 1.81 1.77 1.77 1.88 2.07 2.24 2.42 2.33 2.15 2.02 1.91 1.80 1.64 1.56 1.56 1.47 1.28 1.17 1.22 1.27 1.21 1.02 0.84 0.72 0.60 0.57 0.56 0.56 0.56 0.61 0.63 0.65
1.00 1.06 1.10 1.33 1.61 1.63 1.62 1.72 1.77 1.87 1.89 1.88 1.79 1.76 1.84 1.93 2.04 2.12 2.20 2.10 2.09 2.04 1.97 1.85 1.69 1.63 1.66 1.53 1.29 1.35 1.45 1.31 1.05 0.90 0.80 0.70 0.62 0.60 0.58 0.56 0.58 0.62 0.64
0.98 1.17 1.18 1.25 1.50 1.71 1.71 1.69 1.68 1.75 1.76 1.75 1.68 1.60 1.71 1.91 2.01 2.03 2.06 2.06 1.92 1.85 1.81 1.81 1.77 1.64 1.67 1.71 1.53 1.31 1.21 1.17 1.23 1.11 0.89 0.81 0.78 0.72 0.65 0.59 0.57 0.62 0.66
1.04 1.23 1.33 1.36 1.39 1.59 1.67 1.61 1.59 1.60 1.63 1.73 1.74 1.66 1.61 1.76 1.97 2.07 2.06 2.07 2.06 1.90 1.73 1.67 1.71 1.73 1.68 1.65 1.58 1.43 1.25 1.06 1.02 1.18 1.04 0.90 0.93 0.89 0.83 0.75 0.69 0.70 0.71
1.12 1.28 1.40 1.47 1.38 1.44 1.67 1.65 1.53 1.49 1.50 1.60 1.70 1.78 1.75 1.70 1.77 1.92 2.02 2.00 2.00 2.01 1.94 1.75 1.66 1.71 1.67 1.62 1.58 1.51 1.43 1.32 1.13 1.11 1.07 0.88 0.86 0.86 0.89 0.93 0.91 0.88 0.86